GFSNIL_sfc_wetblb_084.txt.gz
Wetbulb
51.35 52.45 52.16 51.53 50.55 50.94 51.00 53.41 55.46 56.28 57.20 57.51 57.91 56.87 55.39 53.26 51.11 49.77 48.77 48.71 48.49 47.36
45.65 47.38 48.47 48.78 48.24 48.67 48.31 48.62 49.01 50.10 54.59 55.50 55.72 55.35 55.21 53.39 50.95 50.06 48.65 48.29 48.05 47.71
42.35 43.00 43.64 44.29 44.85 45.30 46.10 45.51 45.44 45.74 46.47 49.67 52.86 54.03 53.96 53.58 51.59 49.63 49.12 48.13 47.48 47.14
41.48 41.83 41.92 41.96 42.44 42.94 43.27 43.23 43.29 43.47 43.77 44.59 45.07 46.44 49.47 51.09 51.35 49.82 48.37 47.97 46.83 46.53
40.65 40.95 41.05 41.47 41.90 41.80 42.13 41.93 42.31 41.98 42.02 42.65 43.34 43.82 44.64 45.99 47.55 47.77 47.72 48.02 47.20 46.67
38.01 38.26 38.64 39.25 39.81 39.99 39.99 39.75 39.36 39.25 39.69 41.25 42.48 44.92 46.21 46.93 46.89 46.98 47.32 47.36 45.21 45.68
35.15 35.42 35.70 35.91 36.11 36.28 36.78 36.78 36.69 36.88 36.62 36.77 37.94 40.97 42.20 41.61 44.28 45.03 45.60 45.83 45.32 44.20
33.05 33.21 32.82 32.56 32.42 32.68 32.88 33.56 33.46 33.70 33.95 34.09 35.11 37.89 39.05 39.00 40.14 41.11 41.69 41.22 40.21 40.69
30.26 30.35 30.50 30.93 31.23 31.17 31.44 31.77 32.46 32.47 32.38 32.38 33.25 37.40 39.70 39.95 38.27 37.07 37.13 37.86 37.36 36.67
28.89 28.99 29.56 29.82 30.19 30.85 31.13 30.73 30.56 30.36 30.10 30.44 31.04 36.45 38.08 38.23 36.66 35.64 35.76 35.41 34.81 34.33
27.90 27.65 27.91 27.91 28.13 28.73 29.21 29.02 29.04 29.23 28.77 27.98 29.45 35.46 36.70 36.93 35.04 34.21 34.03 33.93 33.96 33.84
27.10 26.34 26.30 25.62 29.14 29.62 29.72 26.32 27.45 27.80 28.02 27.29 28.88 34.61 35.23 34.92 33.04 32.82 32.74 32.75 32.55 32.77
26.17 24.12 24.30 25.71 27.98 27.98 25.62 28.72 28.66 28.26 27.37 28.30 29.61 32.62 33.64 33.66 32.19 31.89 31.77 30.13 30.40 30.83
23.63 22.41 22.65 23.70 23.67 25.28 24.79 26.69 23.69 26.88 27.24 24.87 28.77 28.83 31.84 33.23 31.82 31.59 30.70 28.93 28.60 29.36

GFSNIL_sfc_wetblb_087.txt.gz
Wetbulb
50.81 53.00 53.80 53.68 53.77 54.06 54.17 55.47 56.77 57.64 57.99 58.12 58.06 58.06 57.07 55.71 53.97 52.78 50.85 50.91 50.56 50.21
44.77 45.42 46.10 47.05 48.89 50.04 50.53 50.52 51.20 51.74 53.32 55.30 55.52 56.65 56.50 54.91 53.31 52.14 51.17 50.45 50.24 49.65
43.05 43.71 44.15 44.67 44.82 45.22 45.93 46.74 47.10 47.63 48.27 49.37 51.85 53.31 53.80 54.05 53.58 51.47 51.19 50.27 49.46 49.38
40.94 41.55 42.15 42.42 42.81 43.19 43.67 44.00 44.30 44.86 45.42 46.04 46.85 48.14 49.78 50.81 51.27 51.17 50.86 49.74 48.65 48.38
38.39 38.71 38.89 39.19 39.84 40.63 40.85 41.47 42.08 42.36 42.68 43.62 44.47 45.38 45.37 46.10 47.55 48.10 48.05 48.95 47.72 47.71
36.04 35.99 35.90 36.07 36.47 36.94 37.39 37.83 38.46 38.82 39.62 40.77 41.73 43.11 44.21 45.12 45.96 46.39 46.66 47.01 46.67 46.64
34.14 34.06 34.22 34.45 34.56 34.71 34.89 35.16 35.53 36.09 35.99 36.42 37.21 37.96 39.76 41.22 43.33 44.33 44.87 45.40 45.44 45.35
32.78 32.68 32.49 32.38 32.40 32.71 33.10 33.63 33.88 34.11 34.92 35.08 35.37 36.01 37.15 38.18 39.29 39.90 40.43 41.30 41.94 42.77
30.53 30.33 30.62 30.63 30.77 31.08 31.67 32.09 32.28 32.50 32.65 32.77 33.49 36.03 37.49 37.76 37.18 37.01 36.55 37.43 38.27 37.44
29.12 28.90 29.36 29.21 29.28 29.82 30.05 30.67 30.79 31.15 31.20 31.54 31.89 34.97 36.78 36.73 35.37 35.58 36.09 35.98 35.43 34.93
28.00 27.51 27.48 27.20 27.19 28.88 29.60 29.34 29.60 30.03 30.37 30.56 30.98 34.70 35.80 35.82 34.93 34.94 35.22 35.23 34.91 34.35
27.16 25.99 25.80 25.15 26.18 27.30 28.32 29.15 28.77 29.70 29.30 28.89 29.83 32.79 34.48 34.28 33.58 33.18 33.31 33.74 33.93 33.29
25.61 23.80 23.66 25.00 24.83 26.08 25.69 27.39 28.57 28.74 29.00 27.76 27.91 31.08 32.96 33.30 32.71 31.66 32.06 32.72 31.80 31.29
26.71 24.48 25.25 25.58 25.68 24.87 24.14 26.85 27.04 27.39 28.87 27.40 27.34 27.91 31.58 32.94 31.72 31.15 31.17 31.80 30.87 30.54

GFSNIL_sfc_wetblb_093.txt.gz
Wetbulb
56.71 56.58 55.36 54.18 54.21 54.45 54.06 54.12 53.65 54.06 55.42 56.34 56.94 56.38 56.74 57.00 56.52 56.43 55.22 54.30 53.91 53.37
50.52 50.58 50.26 50.51 50.73 50.27 50.37 49.46 50.03 50.97 51.16 52.15 52.71 53.38 53.79 54.84 53.93 53.74 54.12 54.09 53.75 53.14
47.10 47.34 47.52 47.07 46.10 46.30 46.74 46.43 46.73 46.99 47.56 48.22 49.06 49.87 50.49 51.14 52.20 52.25 52.33 51.57 51.48 51.57
44.74 45.00 44.91 44.26 43.99 43.71 44.30 43.89 43.70 43.75 44.20 44.82 45.28 46.12 46.45 47.09 47.77 47.68 48.23 49.31 49.02 48.54
43.42 43.33 42.58 41.94 41.88 42.25 41.65 42.73 42.29 42.26 42.49 42.42 42.52 43.05 43.06 43.13 44.20 44.21 44.74 45.95 46.14 45.55
41.12 41.11 40.64 40.57 40.73 40.93 40.78 41.23 41.34 41.07 40.36 40.19 40.69 40.39 41.11 40.79 40.75 41.49 42.25 42.76 42.71 42.32
39.11 39.13 39.08 39.21 38.97 38.74 38.90 38.91 38.67 38.70 38.51 38.60 38.36 38.83 38.37 37.75 38.51 38.92 39.09 39.61 39.78 39.65
38.58 37.81 37.52 36.91 36.68 36.58 36.46 36.59 36.61 35.84 36.34 36.48 36.80 36.28 35.80 35.87 36.45 36.70 36.58 36.97 36.83 37.60
35.87 35.12 35.38 34.76 34.20 34.18 34.48 35.00 34.74 34.28 34.58 34.36 34.67 36.71 36.86 35.79 34.97 35.01 35.00 35.12 35.71 36.20
33.48 33.51 33.50 32.97 32.85 32.87 32.99 33.39 32.86 33.24 33.73 33.47 34.11 35.77 35.82 35.48 33.81 33.75 34.59 34.95 34.89 34.54
32.23 31.68 31.53 31.20 31.06 31.80 32.05 31.38 31.50 31.98 32.22 32.42 32.79 34.72 34.79 34.49 33.20 33.33 33.48 33.62 33.53 33.23
31.16 29.90 29.89 28.51 29.96 30.42 30.46 30.50 30.82 30.74 31.02 30.61 31.24 33.46 33.93 33.21 31.89 31.60 31.84 32.36 32.74 32.66
29.87 28.51 28.44 29.84 29.63 31.08 31.17 30.56 31.16 31.10 31.89 30.89 30.18 32.42 33.16 32.58 31.32 30.13 30.76 31.56 31.75 32.42
28.04 26.69 27.94 28.92 30.26 30.21 30.41 30.36 30.67 30.77 32.10 31.41 30.72 30.79 32.35 33.00 30.85 29.80 29.56 30.43 31.36 32.44

GFSNIL_sfc_wetblb_096.txt.gz
Wetbulb
51.96 50.22 48.51 47.95 47.51 47.27 46.67 46.22 47.05 47.58 48.18 48.67 49.21 49.42 50.43 50.96 52.30 52.93 52.27 53.43 53.72 53.87
44.76 44.65 44.04 43.60 43.82 43.67 43.42 44.33 44.01 44.20 44.48 45.31 46.07 46.58 46.68 47.05 47.00 47.80 48.32 48.48 48.75 50.14
41.96 42.11 41.86 41.48 40.74 40.98 41.11 41.50 41.23 41.17 41.63 42.14 42.72 43.17 43.31 43.57 44.39 43.97 44.42 45.53 45.24 45.55
40.31 40.38 40.05 39.28 39.12 39.22 39.55 39.70 39.57 39.67 39.88 40.01 39.94 40.36 40.08 40.27 40.78 40.52 40.76 41.65 42.18 42.73
39.06 38.54 37.92 37.57 37.81 38.14 37.82 38.57 38.21 38.34 38.22 38.29 38.21 37.88 37.68 37.52 37.47 37.51 37.81 38.85 39.09 39.62
36.72 36.49 36.46 36.53 36.79 36.80 36.45 36.45 36.35 36.35 35.85 35.89 36.28 35.91 36.49 35.96 35.80 36.12 36.67 36.79 36.37 36.51
35.31 35.51 35.44 35.55 35.15 34.66 34.79 34.54 34.37 34.32 34.13 33.84 33.93 34.51 33.93 33.57 34.11 34.30 35.02 35.64 35.46 35.28
34.63 34.37 33.88 32.72 32.34 31.88 31.31 32.30 31.60 31.04 31.14 31.64 32.60 33.51 32.80 32.24 32.56 32.17 32.55 33.04 33.64 33.78
32.09 31.51 30.97 30.56 30.53 30.32 30.32 30.18 30.12 29.85 30.18 30.31 32.19 35.25 36.28 35.27 32.03 31.41 30.87 30.65 31.71 31.81
30.49 30.20 29.66 29.45 29.08 29.23 28.86 28.96 28.58 28.68 28.83 28.98 29.00 34.38 35.37 35.04 31.56 30.63 30.24 30.95 31.73 31.76
29.22 28.03 28.44 27.94 27.25 27.83 27.94 27.37 27.30 27.51 27.66 27.67 29.32 33.49 34.25 33.62 30.82 29.79 29.82 30.00 31.47 31.59
27.76 25.51 25.90 23.12 25.40 26.24 25.25 25.09 24.11 27.26 24.55 24.73 30.00 32.49 32.94 32.70 30.92 30.15 30.11 30.99 31.36 31.64
26.85 23.07 22.21 24.41 23.53 23.97 22.73 28.11 28.28 29.78 30.81 30.41 31.24 32.61 32.72 32.07 30.36 28.99 29.13 30.26 31.16 31.94
24.84 20.98 21.31 21.82 22.78 20.67 21.57 24.71 21.24 25.82 26.61 30.43 28.08 26.36 33.08 33.27 30.94 29.70 29.17 29.67 29.68 30.10

GFSNIL_sfc_wetblb_102.txt.gz
Wetbulb
50.50 48.77 48.14 47.47 45.52 44.07 42.27 40.97 41.33 41.57 41.54 41.60 41.54 41.91 42.23 41.73 41.69 40.36 39.96 39.83 40.61 41.74
44.73 43.87 42.69 41.49 41.25 40.06 39.38 39.81 39.15 38.99 38.65 38.98 38.93 39.11 38.97 38.60 36.94 36.81 37.11 37.54 37.35 38.10
40.64 40.49 39.70 39.48 38.08 37.52 37.30 37.34 37.07 36.88 36.72 36.62 36.49 37.07 36.84 36.07 35.32 34.81 35.22 36.43 35.57 35.40
38.24 37.77 37.67 36.95 36.46 36.34 35.77 35.63 35.17 35.43 35.11 34.90 34.53 35.17 34.53 33.93 33.64 33.39 33.43 33.86 33.90 33.86
36.67 36.04 35.36 34.55 34.71 34.81 34.09 34.01 33.65 33.94 33.80 33.65 33.33 33.61 33.01 32.23 32.47 32.03 31.83 32.16 31.99 31.86
34.78 34.23 33.41 33.06 33.49 33.27 32.72 32.47 32.17 32.29 31.99 31.74 31.79 31.82 31.83 32.03 31.97 31.35 31.21 31.20 30.45 30.43
33.00 32.97 32.34 32.02 31.70 31.65 31.64 31.12 30.81 30.70 30.11 30.07 29.88 30.67 31.51 31.65 31.23 30.60 30.44 30.69 30.25 30.02
32.03 31.80 30.84 30.18 30.10 29.85 29.64 29.74 29.58 29.38 29.18 29.15 29.99 31.32 31.33 31.20 30.94 30.81 29.78 29.03 29.99 31.36
30.33 29.35 29.07 29.15 29.45 29.60 29.34 28.95 29.11 28.79 28.71 28.19 29.52 33.57 33.79 32.85 31.04 30.91 29.36 28.43 29.71 30.77
29.26 29.15 29.29 29.36 29.31 28.78 28.42 28.23 28.16 28.13 27.97 27.65 27.54 32.80 32.67 32.26 30.78 30.05 29.83 29.73 29.53 29.91
29.49 28.79 28.42 28.05 27.58 27.75 28.14 27.60 27.43 27.38 27.33 26.88 28.11 32.26 33.14 33.18 30.63 30.37 30.30 30.32 30.31 30.06
28.73 27.33 26.41 25.79 25.87 26.72 25.89 24.85 23.59 25.99 23.28 22.21 25.50 31.20 33.36 32.05 30.00 29.18 28.43 29.23 30.40 30.55
27.52 26.32 25.23 25.92 25.45 25.32 24.00 25.10 25.46 24.91 23.06 21.81 19.68 28.07 32.23 32.42 26.93 25.59 26.93 28.48 30.29 30.99
25.83 24.97 24.97 24.71 24.33 22.14 20.91 21.34 15.60 18.79 18.55 16.58 19.13 21.45 31.23 32.84 27.57 26.92 29.00 29.14 29.03 29.82

GFSNIL_sfc_wetblb_105.txt.gz
Wetbulb
57.11 55.72 53.96 51.30 48.38 45.74 44.19 42.80 41.03 40.29 39.71 39.57 39.94 39.81 39.21 37.64 37.74 37.01 36.98 36.03 36.84 37.59
49.27 48.54 46.25 43.87 43.26 41.92 40.73 39.27 38.04 37.67 37.06 37.17 37.60 37.33 36.30 35.05 34.71 34.80 35.13 34.75 34.69 35.09
43.27 42.44 41.92 41.52 39.80 38.15 37.42 36.80 36.04 35.54 35.11 35.30 35.42 35.04 34.46 33.42 33.61 33.33 33.59 33.78 32.91 33.17
39.44 40.18 38.63 37.76 36.57 36.05 35.57 35.08 34.55 34.39 33.69 33.50 33.57 33.46 32.57 32.69 32.27 31.85 31.74 31.97 31.52 31.16
37.14 36.81 36.43 35.45 34.75 34.23 33.43 33.36 33.01 32.93 32.59 32.25 32.27 31.92 31.67 31.18 31.20 30.35 30.08 30.03 29.82 29.30
34.82 34.60 33.80 33.74 33.02 32.66 32.13 31.80 31.84 31.70 31.13 30.59 30.80 30.91 31.05 31.13 30.53 29.72 29.42 29.33 29.12 28.78
33.28 33.10 32.99 32.32 31.94 31.57 31.26 30.44 30.31 29.96 29.46 29.66 29.72 30.89 31.26 30.86 29.71 29.31 29.23 29.94 29.64 30.46
31.74 31.55 30.87 30.61 30.65 30.24 29.58 29.31 29.30 28.64 28.48 28.96 29.88 31.39 30.44 30.57 29.94 29.42 29.29 30.19 30.28 30.87
30.82 30.27 30.26 29.99 29.17 29.07 28.92 28.35 28.46 28.32 28.43 27.71 30.35 34.29 33.70 31.50 29.55 29.12 29.01 28.99 29.77 30.47
29.92 29.66 29.30 29.15 28.78 28.68 28.17 28.46 28.02 28.03 27.93 27.33 28.72 33.46 32.93 32.34 29.37 28.54 28.53 28.87 29.65 29.81
29.17 28.78 28.20 28.02 27.72 27.79 27.49 27.25 27.02 27.41 27.57 27.61 28.85 32.71 33.05 33.24 29.33 28.89 28.60 28.42 28.58 29.60
29.14 28.13 27.33 26.74 26.35 26.83 26.33 25.29 25.13 27.31 26.40 26.24 26.45 30.23 32.58 32.24 28.61 28.89 28.44 29.08 28.43 29.76
29.20 28.26 27.54 27.06 26.25 25.51 24.56 25.83 26.79 27.05 25.46 24.23 21.13 27.43 31.42 32.53 27.29 21.08 25.92 26.89 28.64 29.53
27.58 27.19 26.88 25.85 24.92 23.98 24.18 24.51 23.74 23.40 22.76 22.37 21.41 22.77 30.34 31.62 28.17 25.41 22.79 22.96 24.00 27.00